Theta_e
352 346 339 337 337 336 334 334 332 331 328 323 320 318 315 315 316 316 316 316 314 312 311 311 311 312 311 311 311 311 311 312 313 312 311 310 312 313 317 319 320 323 326 328 329 330 331 332 334 334 334 335 337 337 336 336 335 335 336 336 336 336 336 336 336 336 335 333 329 328 327 326 327 328 329 329 329 329 330 332 333 335 336 336 336
350 346 340 336 337 335 334 334 333 332 328 321 317 317 315 315 316 316 316 315 314 312 311 311 311 311 311 311 311 312 313 314 314 312 312 310 312 315 318 320 319 323 326 328 330 332 334 335 334 334 335 336 337 336 335 335 335 335 335 335 335 335 334 333 334 333 331 328 322 319 320 324 326 328 328 329 330 330 331 332 333 335 336 335 335
348 346 340 338 338 335 334 334 333 332 329 322 316 316 315 315 316 315 316 315 314 312 311 311 312 312 311 312 312 313 314 314 314 313 312 311 312 315 319 319 319 323 325 327 331 333 335 335 334 335 336 335 335 335 335 335 334 335 335 333 332 330 329 328 328 328 327 326 322 315 314 318 320 324 327 328 330 330 331 332 333 334 335 334 335
347 344 340 339 338 336 334 334 333 332 330 324 317 315 314 314 315 315 316 315 314 312 312 312 312 312 312 312 313 314 315 314 314 315 312 311 312 315 319 320 320 324 326 328 332 334 336 336 336 335 335 335 334 335 335 335 335 335 334 332 328 324 322 322 322 322 321 322 320 315 313 313 314 320 323 324 326 326 328 330 332 333 333 332 333
346 344 340 340 339 336 334 334 333 332 331 326 319 315 314 314 314 315 315 315 314 312 312 312 312 312 312 312 313 314 314 315 315 315 312 312 312 314 319 320 321 324 328 329 332 335 336 337 337 336 335 335 335 335 335 335 334 334 334 333 327 320 316 317 317 315 314 315 316 314 312 313 312 315 317 317 319 319 321 322 324 327 328 328 329
345 343 341 340 339 336 334 334 334 333 331 329 323 317 314 314 313 314 315 316 314 313 312 312 313 312 312 313 313 314 314 315 315 315 313 312 313 313 317 321 323 326 331 332 333 334 335 335 335 335 335 335 335 334 334 334 334 334 334 332 326 319 314 316 318 316 313 311 313 313 312 313 312 314 314 314 315 315 316 315 316 318 318 322 325
344 343 341 340 338 335 335 334 334 334 332 331 326 320 315 313 313 314 315 316 315 313 313 312 312 312 312 313 314 314 314 315 314 315 314 313 313 313 316 320 324 328 332 333 333 333 333 332 332 331 332 332 332 332 333 333 333 333 331 327 323 319 317 319 321 320 318 312 311 312 312 313 314 319 316 312 313 313 313 313 313 313 312 316 323
344 342 341 339 337 335 335 334 334 334 333 332 329 324 318 315 313 313 315 316 315 314 313 312 312 313 312 313 314 314 314 314 314 315 314 313 312 312 314 318 323 328 332 333 332 330 329 329 329 329 329 330 330 331 330 330 329 327 325 322 321 321 320 320 320 319 317 312 311 313 311 310 313 318 316 311 311 311 312 312 311 312 310 313 321
344 342 340 338 336 334 334 334 334 334 334 333 331 327 322 317 315 313 314 315 315 314 313 313 313 312 312 313 313 314 314 314 315 315 315 314 312 312 313 316 320 326 330 332 330 328 327 327 328 329 329 330 330 329 327 326 323 322 322 322 322 321 320 319 317 315 313 310 310 310 308 309 309 311 310 309 311 312 313 311 309 310 310 312 319
344 342 340 337 335 334 334 334 334 334 334 334 332 329 325 320 317 315 314 314 315 315 314 313 313 313 312 312 312 313 314 314 315 315 315 314 312 311 311 313 317 322 326 329 328 326 326 327 328 329 329 329 329 327 325 322 320 322 323 323 323 321 320 317 314 312 309 309 309 309 307 307 307 308 310 310 311 313 315 313 312 310 313 318 320
345 342 340 337 336 334 333 334 335 335 335 334 333 331 327 321 318 316 314 313 314 315 315 314 313 313 313 313 312 312 312 314 315 315 315 314 313 312 311 311 314 318 323 326 326 323 325 328 328 329 329 329 328 327 324 321 321 322 322 322 321 319 317 314 311 310 309 309 309 309 308 307 308 311 315 316 311 311 314 313 313 311 315 321 320
345 342 340 338 336 335 333 334 334 335 335 335 334 332 328 323 320 317 315 314 313 314 314 315 314 313 313 313 312 312 311 313 314 315 315 315 314 312 311 311 311 315 319 323 323 321 323 327 328 328 328 328 328 328 325 322 321 321 320 319 317 315 313 312 310 309 309 309 309 309 309 310 311 312 315 316 312 311 313 314 316 314 314 318 318
345 343 339 337 336 335 333 334 335 335 336 336 335 332 329 326 324 321 319 317 315 315 314 314 314 314 314 314 313 313 312 312 313 314 315 315 314 314 312 311 310 312 316 319 321 320 323 327 328 327 328 329 330 329 326 322 321 321 320 318 317 315 311 310 310 310 310 310 310 310 310 310 312 313 315 316 313 314 316 317 319 317 314 315 314
345 343 339 337 335 334 333 334 335 336 336 337 336 333 331 329 328 327 324 323 320 319 317 315 314 314 314 314 314 313 313 311 312 313 314 316 315 314 313 312 311 311 312 316 318 318 323 327 326 328 330 331 331 330 327 322 321 322 322 322 320 314 309 309 310 310 310 310 310 310 311 311 312 314 315 315 314 315 318 319 319 319 318 314 311
345 342 338 337 334 333 333 334 335 336 337 337 336 335 333 332 332 331 330 329 327 326 324 320 316 315 314 314 314 314 314 311 311 312 313 315 315 315 314 313 311 310 310 312 315 316 320 325 326 329 331 331 332 330 327 324 323 325 326 326 324 317 312 310 309 310 310 310 311 311 311 311 312 313 313 313 314 315 317 318 317 316 314 311 310
344 340 338 336 334 333 333 334 335 336 337 338 337 336 335 335 334 333 333 332 331 331 330 328 324 320 317 315 314 313 313 312 311 311 312 314 315 316 315 314 312 311 310 310 313 314 317 323 327 330 331 331 331 329 327 325 326 328 328 328 327 323 319 314 309 309 309 310 310 310 311 312 311 312 313 312 315 316 315 313 312 311 310 312 314
340 338 336 334 333 332 333 334 336 336 337 338 338 337 336 336 336 335 335 334 333 334 333 332 331 329 325 320 317 314 313 313 312 311 311 312 314 316 315 315 313 311 310 310 311 312 314 321 328 330 331 331 331 328 327 326 327 329 330 330 329 326 324 318 312 309 309 309 309 310 310 312 312 312 312 311 313 314 311 309 310 312 311 312 312
337 336 334 333 332 333 333 334 336 337 337 339 339 339 338 337 337 337 336 335 335 334 334 333 333 332 331 329 324 319 316 314 314 313 311 312 314 315 316 315 314 313 311 309 310 310 312 320 328 330 331 331 329 327 327 328 329 330 330 330 328 327 325 319 314 311 310 310 310 310 309 310 311 312 312 312 312 311 312 315 318 319 318 317 313
335 335 334 333 333 333 333 335 336 337 337 339 340 340 339 338 338 338 337 336 335 335 335 334 333 333 332 332 330 325 320 317 315 315 312 312 313 315 316 315 315 314 312 310 310 310 313 321 328 331 331 331 329 325 327 330 330 330 329 328 328 328 325 321 317 313 312 312 312 311 310 309 310 310 311 311 312 312 313 317 320 320 320 320 316
336 335 335 335 334 334 334 336 337 337 338 339 340 340 340 340 339 338 337 336 336 335 335 334 333 334 333 332 331 329 324 320 316 316 315 313 313 315 316 316 315 314 313 311 310 310 313 322 329 331 331 331 330 326 327 330 331 330 329 327 327 327 326 325 323 317 314 314 313 313 312 311 310 310 310 310 310 311 311 312 314 315 315 315 313
336 335 335 335 336 336 336 337 337 337 338 338 340 341 340 340 340 339 338 337 336 336 335 334 333 334 335 333 331 330 327 323 318 316 315 316 317 318 317 317 316 315 314 313 311 310 314 324 329 331 331 332 332 328 326 329 331 329 328 327 326 326 327 328 328 322 318 317 315 314 314 313 312 311 310 309 308 308 310 310 310 310 310 311 310
335 335 335 335 335 335 336 337 338 338 337 338 340 340 340 340 340 340 338 337 337 337 335 333 333 333 334 333 331 331 329 325 320 317 315 317 320 321 319 318 317 316 315 315 313 310 315 324 329 331 332 332 332 330 328 329 329 328 328 327 325 326 327 328 329 325 322 320 318 317 316 315 314 313 312 310 309 308 308 308 308 309 309 309 309
336 335 335 334 333 333 333 335 336 337 337 338 339 338 337 338 340 340 338 338 337 337 335 333 333 332 332 331 332 331 328 325 323 319 315 317 321 323 321 320 318 317 317 316 314 312 316 324 329 331 332 332 332 332 330 329 329 329 327 326 327 327 327 328 329 328 327 324 321 320 319 317 316 315 314 312 311 310 309 309 307 307 307 308 309
336 335 335 332 331 331 332 334 334 334 334 336 336 335 335 336 338 339 338 337 337 337 334 333 332 332 332 334 334 330 324 322 322 321 317 318 323 323 322 322 320 318 318 318 316 313 316 323 329 330 332 332 332 331 330 329 330 329 328 328 329 329 328 328 328 330 329 326 323 321 320 319 318 316 315 315 314 313 311 310 309 308 307 307 308
337 335 333 331 332 332 331 334 334 332 332 333 333 331 333 335 336 338 337 337 337 336 333 332 332 333 335 336 335 331 324 321 321 322 320 320 322 322 323 323 322 320 319 320 319 317 315 320 326 329 330 332 332 331 330 330 329 329 330 330 329 329 329 327 328 330 329 327 324 322 321 320 319 318 317 317 316 315 314 312 311 309 308 308 308
338 336 333 330 332 332 329 332 333 333 332 331 330 328 329 331 333 335 336 337 336 334 332 332 332 335 337 336 335 333 326 322 321 321 319 318 320 321 323 324 323 322 321 321 321 320 318 317 321 324 327 332 333 332 332 330 327 328 330 328 328 328 327 327 328 329 328 327 325 323 322 321 320 320 320 319 318 318 317 315 314 312 310 309 308
338 337 334 330 329 330 330 330 331 332 332 332 330 326 326 327 329 332 334 336 335 333 332 332 334 336 336 335 333 331 327 324 323 321 319 317 318 322 326 326 325 324 323 323 323 323 323 320 319 320 324 331 333 331 330 328 326 327 328 328 329 328 327 327 328 329 328 327 326 325 323 323 322 322 321 320 318 318 318 318 316 314 311 310 309
338 337 335 332 330 330 331 331 331 332 332 332 330 326 325 325 327 330 333 334 333 332 332 333 336 336 335 333 330 329 328 326 326 324 322 319 319 323 327 327 326 326 325 324 325 325 325 324 322 321 324 329 330 327 327 327 326 326 327 328 329 328 328 328 328 329 329 328 327 325 324 324 323 323 322 321 319 318 318 318 317 315 314 312 310
339 338 337 334 332 331 332 332 332 333 332 332 330 327 325 325 327 330 332 333 332 331 332 335 337 335 333 332 330 331 330 328 330 328 325 324 323 325 328 327 326 326 325 325 326 325 326 326 325 324 325 327 327 326 326 327 327 326 327 329 328 328 329 329 329 329 329 328 327 326 325 324 324 323 323 322 320 319 319 318 317 316 314 312 310
339 339 337 335 332 331 332 333 332 332 333 333 330 327 325 325 327 330 332 332 332 332 334 337 337 335 332 331 331 333 331 330 332 331 329 329 327 328 328 327 326 324 324 325 326 326 325 326 325 324 324 324 324 324 325 327 328 328 329 329 328 328 329 328 329 330 329 328 326 326 325 325 324 324 323 322 321 321 320 318 317 316 314 312 311
340 340 339 336 333 332 331 332 332 332 333 333 331 327 325 325 327 330 332 332 332 333 335 336 336 334 332 331 332 334 332 332 333 332 331 331 331 329 328 327 326 325 323 324 327 327 326 326 324 324 324 323 322 323 324 327 328 329 329 328 328 328 328 327 328 329 329 328 327 326 326 325 324 324 323 322 322 322 320 318 316 315 314 313 311
337 337 339 338 335 332 331 332 333 333 333 334 332 328 325 324 326 330 332 332 333 333 334 335 334 334 333 331 332 333 332 332 333 333 332 332 332 330 328 326 325 326 324 323 327 328 327 327 325 324 325 323 323 323 325 327 329 329 329 328 328 328 328 327 327 329 329 328 327 327 326 325 324 324 324 323 321 319 318 317 315 315 315 313 311
334 335 338 339 337 335 333 333 334 334 334 335 333 331 328 324 325 329 330 330 331 330 331 333 332 332 333 332 333 333 332 332 332 333 333 333 332 330 329 326 323 325 323 322 326 328 327 327 325 325 326 325 325 325 327 329 329 329 329 328 328 328 328 328 328 328 329 328 327 327 326 325 324 324 324 322 319 316 315 315 314 314 313 311 310
334 335 337 339 339 338 335 333 333 334 334 334 334 333 330 325 327 331 328 327 329 329 330 332 332 331 332 333 333 333 333 333 331 333 333 333 333 331 331 328 324 325 323 323 327 328 328 326 325 325 325 325 325 327 329 330 330 330 330 329 329 328 329 328 328 328 328 327 327 327 326 325 325 324 324 321 317 315 315 314 313 312 311 309 308
334 333 335 336 337 339 338 335 334 335 335 334 334 334 331 326 329 330 327 327 330 330 330 332 333 332 332 332 332 333 333 332 331 332 333 333 333 331 331 331 327 326 326 326 328 328 328 326 325 325 324 323 325 327 329 330 330 330 330 330 329 329 329 328 328 328 326 326 327 327 327 326 325 325 323 321 319 318 317 316 315 313 311 310 309
333 331 332 333 335 338 338 337 337 337 336 336 335 335 331 327 328 328 326 327 329 330 331 332 333 333 332 332 332 333 333 332 330 332 333 333 333 331 331 331 329 328 327 327 327 326 326 325 325 326 326 324 326 329 331 331 331 330 330 329 329 329 329 328 328 327 326 326 327 327 327 327 326 324 323 323 322 321 320 319 317 315 314 314 312
333 331 331 332 334 336 337 338 338 338 337 337 335 335 333 329 329 328 326 327 329 332 332 332 333 332 332 332 333 333 333 332 331 333 333 332 332 331 331 332 331 330 329 328 328 326 326 326 326 328 329 327 328 331 332 332 331 330 330 330 329 329 329 328 328 327 326 326 326 326 327 327 327 325 324 324 324 324 323 322 321 319 319 319 319
332 330 330 333 335 335 335 336 336 337 337 337 336 335 334 332 331 329 328 329 331 332 332 332 333 332 332 332 333 333 332 331 332 333 333 332 332 332 332 332 331 331 330 331 330 328 328 328 328 328 328 327 328 331 332 332 331 331 330 330 330 329 329 329 328 327 326 326 326 326 326 327 328 326 325 324 324 325 325 325 325 324 323 323 323
329 329 331 334 336 335 334 335 335 336 337 337 336 335 334 332 331 330 329 330 332 333 332 332 332 331 331 332 332 332 331 331 333 333 333 332 332 332 332 332 331 331 330 332 332 329 328 330 329 328 327 328 330 331 332 331 331 331 331 330 330 329 329 329 328 328 327 327 327 327 327 328 328 327 326 324 323 325 325 326 327 327 326 326 326
328 329 331 334 335 334 333 333 334 335 336 337 336 336 334 331 331 331 330 330 331 332 332 332 333 332 332 332 332 332 331 332 333 333 332 331 332 333 333 332 331 330 329 331 330 328 328 330 330 328 328 329 331 332 332 331 331 331 330 329 329 330 330 329 329 329 329 328 328 327 327 327 328 327 327 326 323 323 324 325 326 326 326 327 327
329 330 332 333 333 333 332 332 332 333 335 336 336 335 333 332 331 331 331 330 330 330 330 331 333 334 334 333 333 333 332 333 334 333 332 331 333 333 333 332 330 329 329 328 327 326 328 330 330 329 330 329 330 331 331 331 331 330 329 329 329 329 330 329 330 329 329 329 328 327 327 327 328 327 327 327 324 323 323 324 324 325 326 327 327
330 332 333 333 333 332 332 331 332 333 333 335 336 334 333 332 330 328 328 329 329 330 329 330 332 333 335 334 334 334 333 334 333 332 332 332 332 333 332 331 328 327 328 328 326 327 329 330 330 329 330 330 330 329 329 330 330 330 329 329 329 329 329 329 330 330 329 329 327 327 328 328 328 327 327 328 326 324 324 325 324 323 325 326 327
334 335 336 335 334 332 332 332 332 333 333 335 335 333 333 332 330 328 327 327 328 330 330 331 332 332 334 334 334 334 333 334 334 332 333 332 331 330 330 329 328 328 328 328 327 328 329 331 331 330 330 329 329 330 329 329 330 330 329 328 329 329 329 329 328 328 328 328 327 328 328 328 328 328 327 327 327 326 326 327 325 323 324 325 325
334 335 337 337 336 335 334 333 333 333 333 334 334 333 332 332 331 329 329 329 330 331 331 332 333 333 333 334 334 333 333 334 334 333 332 331 329 327 328 328 328 328 328 328 327 328 329 330 331 329 329 328 328 329 330 330 330 330 329 328 328 329 329 328 327 327 327 327 327 328 328 328 327 327 328 328 327 326 326 326 326 324 324 324 323
331 331 333 335 336 335 335 335 335 335 335 335 334 333 333 332 330 329 329 331 332 332 332 332 333 334 334 334 334 333 333 333 333 333 332 330 327 327 329 329 327 328 329 329 328 328 328 328 328 328 328 328 328 328 330 331 330 330 329 328 328 327 328 328 327 326 327 327 327 327 327 328 327 327 328 328 326 326 326 326 327 325 325 324 323
331 328 329 332 333 333 333 334 335 335 336 336 335 334 333 333 332 331 330 330 332 333 333 334 333 334 334 333 333 332 333 333 333 333 332 329 328 329 330 328 328 329 330 329 329 328 328 327 327 327 328 328 328 329 329 330 331 330 329 328 328 327 327 327 327 327 327 326 327 327 327 327 328 327 328 327 326 326 326 327 326 326 325 325 325
331 328 328 329 331 331 330 331 333 335 336 336 335 335 334 334 333 333 332 331 332 332 333 333 334 334 334 332 332 332 332 332 332 333 331 329 330 330 329 329 330 331 330 329 327 327 327 327 328 328 328 327 328 328 328 329 330 329 329 329 328 327 327 327 326 327 327 326 326 327 327 327 328 327 327 327 326 326 326 327 326 326 325 325 325
331 330 329 329 330 330 329 331 333 333 334 334 334 335 334 334 334 334 334 333 331 332 332 333 333 333 334 332 332 332 332 331 332 333 331 330 331 330 329 330 331 330 329 328 326 326 327 328 329 329 329 328 328 328 327 328 328 329 329 329 329 328 328 328 327 326 326 326 326 327 327 328 328 327 327 326 326 327 327 327 326 326 325 325 325
332 331 331 330 330 331 331 333 334 334 334 332 330 331 331 332 334 334 334 333 332 332 333 334 333 333 333 332 332 332 332 332 332 333 332 331 331 331 330 330 330 329 328 327 327 328 328 329 329 329 329 329 329 328 328 328 328 328 329 328 329 328 328 329 328 327 326 325 327 326 327 328 327 327 327 326 327 327 327 327 326 325 325 326 325
334 332 331 330 329 329 331 332 333 334 334 331 326 326 327 330 333 333 334 334 333 333 334 334 333 333 333 332 332 332 332 333 332 332 331 330 330 331 331 330 329 328 326 327 329 329 329 329 329 329 329 329 329 329 329 329 328 328 328 328 329 328 328 328 328 327 326 326 326 325 326 327 327 327 326 327 327 327 327 326 326 325 325 326 326
335 334 332 331 330 329 330 331 332 332 333 332 328 325 325 327 330 332 333 334 333 333 334 334 333 332 332 332 332 331 331 332 332 331 330 329 330 330 330 329 328 327 327 329 330 329 328 329 329 329 329 329 329 329 330 329 329 329 328 328 329 328 328 327 327 327 326 326 326 325 326 327 326 326 326 326 327 327 327 326 325 325 325 325 325
Wind_Speed
30 32 31 29 27 25 24 24 23 22 22 21 22 23 23 24 24 24 22 21 21 20 20 20 20 20 20 19 18 17 16 15 15 14 13 13 15 17 19 20 24 27 28 28 26 24 22 20 19 17 16 17 20 21 21 20 20 20 19 19 18 17 16 16 15 15 14 13 13 12 12 14 15 15 14 14 14 14 15 15 16 18 20 20 20
33 34 33 32 29 27 26 25 24 23 23 22 23 23 24 24 25 24 23 22 21 21 21 21 21 21 20 19 18 18 16 16 15 14 13 14 16 17 20 22 25 29 29 28 27 25 22 20 19 18 18 20 21 21 22 21 21 20 19 18 17 16 15 15 14 13 12 11 10 10 12 13 15 14 14 13 14 14 14 14 15 17 19 19 20
32 34 34 31 30 28 27 26 25 24 24 24 24 24 25 25 26 25 23 22 22 22 22 22 22 21 21 20 19 18 17 16 15 14 14 14 16 18 21 23 26 29 30 29 28 26 22 20 21 21 21 21 21 20 21 20 20 19 18 17 16 15 14 13 12 11 9 9 8 9 11 12 13 14 14 13 13 13 13 13 13 15 16 17 18
31 33 33 31 29 28 27 27 26 25 24 24 24 25 25 26 26 25 24 23 23 23 23 22 22 22 21 20 19 18 17 17 16 15 15 14 16 18 21 24 26 29 30 29 27 26 22 22 23 23 22 21 20 20 20 19 19 18 16 15 15 14 14 13 12 10 8 7 7 8 10 11 11 13 13 12 11 11 11 12 11 12 13 14 15
30 32 33 31 30 28 28 27 26 25 24 24 24 24 25 26 26 25 25 24 24 23 23 23 22 22 21 20 19 19 18 17 16 15 15 15 16 18 21 24 25 27 28 28 26 26 24 23 23 23 22 20 20 19 19 18 17 17 16 15 14 14 14 15 14 14 11 9 8 8 10 10 11 12 11 10 10 9 9 9 9 10 10 11 13
28 32 33 31 30 28 27 27 27 25 24 24 23 24 24 26 26 26 25 24 24 24 24 23 23 22 21 20 20 19 18 18 16 16 15 14 16 17 20 24 25 25 26 27 26 25 24 23 22 21 21 20 19 19 18 17 16 15 14 14 13 13 14 16 17 17 16 11 9 9 10 11 11 11 9 8 8 8 7 7 8 9 10 11 14
29 31 32 31 30 28 27 27 27 25 24 23 23 23 24 25 25 25 25 25 24 24 24 24 23 22 21 20 20 19 19 18 17 16 15 14 15 16 19 23 25 25 25 26 25 24 23 23 22 21 21 20 19 18 17 15 14 13 13 13 13 13 13 16 17 18 17 14 10 10 10 11 12 11 9 8 7 7 6 6 7 8 10 12 15
30 31 32 31 29 28 27 27 27 25 24 23 23 23 23 23 24 25 24 24 24 24 24 24 23 22 21 20 20 19 19 18 17 16 16 15 14 15 18 21 25 25 25 25 24 23 22 22 22 21 20 19 18 17 15 14 13 14 15 14 14 14 14 16 17 17 16 14 11 11 11 10 11 11 10 8 7 7 7 7 8 8 9 11 15
30 30 31 31 29 29 28 28 27 26 24 23 22 22 22 22 23 24 24 24 24 24 24 24 23 22 21 20 20 19 19 18 18 17 16 15 14 14 16 19 22 25 24 24 23 23 22 22 22 20 19 18 17 15 14 14 14 15 16 15 15 15 16 16 17 17 15 13 11 12 12 11 11 11 10 8 8 8 9 9 10 10 10 12 14
30 30 31 30 29 29 28 28 27 26 24 23 21 21 21 21 21 22 23 23 23 23 23 23 23 22 21 20 20 19 19 18 18 17 16 16 14 14 14 16 20 23 24 23 22 22 22 21 21 20 19 17 15 14 13 14 15 16 16 16 16 17 17 18 17 16 15 13 11 12 14 13 13 12 11 10 10 11 11 11 12 12 12 14 15
29 30 31 30 30 29 28 28 27 26 24 23 21 21 20 20 20 20 21 22 23 23 23 23 23 22 21 20 19 19 19 18 18 17 16 16 15 14 13 15 18 21 22 22 21 21 21 21 20 19 18 15 13 12 12 13 15 16 17 17 17 18 18 18 17 16 15 13 11 13 15 15 14 14 13 13 12 13 13 12 13 13 13 14 14
29 30 31 30 29 29 28 28 27 26 25 23 22 20 19 19 18 18 19 20 21 21 22 22 22 22 21 21 19 18 18 18 17 17 17 16 16 14 13 14 16 19 21 22 21 20 21 20 20 19 17 14 12 11 11 13 15 15 16 17 18 18 18 17 17 16 15 14 12 12 15 15 15 15 15 15 14 14 14 14 14 14 13 13 14
29 30 31 30 29 28 28 28 27 26 25 23 22 20 19 18 18 18 18 18 18 19 20 20 21 21 21 20 19 18 18 18 17 17 17 16 16 15 14 14 15 18 20 21 20 20 21 21 20 19 17 14 12 10 10 12 14 15 16 16 17 17 16 16 15 15 15 14 11 12 14 15 16 16 16 16 15 15 15 14 14 14 13 13 14
28 30 30 30 29 28 27 27 26 25 25 23 22 20 19 18 17 17 17 16 16 15 16 18 19 19 20 20 19 18 17 18 18 17 17 17 16 16 15 14 15 17 19 21 21 20 21 21 21 19 16 14 11 9 9 10 13 14 15 15 15 16 15 15 14 14 14 14 13 13 14 15 16 16 16 16 15 16 15 15 15 14 14 14 14
27 30 30 29 28 27 26 25 25 25 24 23 22 20 19 18 17 17 16 15 14 13 14 15 16 17 18 18 19 18 17 18 18 18 17 16 16 16 16 14 15 17 18 20 21 21 21 21 21 19 16 14 11 9 8 9 13 13 13 14 14 15 15 14 13 13 13 14 14 13 13 14 15 15 16 16 16 16 15 15 15 15 15 14 14
27 29 29 29 28 27 26 24 24 24 23 22 21 20 19 18 17 17 16 16 15 13 13 13 14 15 15 16 17 18 17 17 18 19 18 17 17 16 16 15 15 16 17 19 20 21 21 22 21 18 16 14 11 9 8 9 11 12 12 13 14 15 15 13 13 13 13 14 13 12 12 12 13 14 14 15 15 15 15 15 15 14 14 14 14
28 28 28 28 28 27 26 24 23 23 22 21 21 20 19 18 17 17 16 16 16 15 14 13 13 13 13 14 15 16 16 16 17 18 19 18 17 17 16 16 15 15 17 18 20 20 21 22 21 18 16 13 11 9 8 7 9 11 11 12 13 14 15 14 13 13 13 13 13 12 11 11 10 12 12 13 14 14 14 14 13 13 13 14 14
27 28 27 27 27 26 26 24 23 22 22 21 20 19 19 18 18 18 17 16 16 15 14 13 12 12 12 12 12 14 15 16 16 16 18 19 18 17 16 16 15 16 17 18 19 20 21 23 22 19 16 14 11 9 7 6 7 9 10 11 12 13 15 15 13 13 13 13 12 12 12 11 10 10 10 11 12 11 12 12 12 12 13 14 14
26 27 26 26 26 25 25 24 23 22 22 21 20 19 19 19 19 18 17 16 15 15 14 13 12 11 11 11 11 12 13 15 16 16 17 18 18 18 17 17 16 16 17 17 18 20 22 23 22 20 17 14 11 9 6 5 6 8 9 10 11 12 14 15 15 13 12 12 12 11 11 11 10 10 10 10 10 10 10 11 10 11 12 12 13
25 25 24 24 24 24 24 23 22 22 22 22 21 20 19 19 19 18 17 16 15 14 13 13 13 12 11 11 12 12 12 14 16 17 17 17 17 17 17 17 17 17 17 17 18 20 23 24 23 20 17 14 12 9 6 4 5 7 8 9 10 11 12 14 15 13 12 11 11 10 11 10 10 10 9 9 8 9 9 9 9 10 10 11 11
24 24 23 23 22 22 22 21 21 22 22 22 20 20 19 19 18 17 17 16 15 14 13 13 14 13 12 12 12 13 13 13 15 16 17 16 15 16 17 18 18 17 17 17 18 21 24 24 23 21 17 15 12 9 6 4 4 5 7 8 9 10 10 11 13 13 12 11 10 9 9 10 10 9 9 8 8 8 8 8 8 9 9 9 9
25 24 22 22 22 21 22 21 21 21 22 21 19 19 18 18 17 17 17 17 15 15 15 15 15 15 13 13 13 14 14 13 14 15 17 16 15 15 16 17 18 18 17 18 19 21 24 25 24 21 17 15 12 9 6 4 3 4 5 7 8 9 9 10 11 12 11 10 9 8 8 8 8 8 8 8 8 8 8 8 8 7 7 7 8
26 25 23 23 22 22 22 21 21 20 21 19 18 17 17 17 18 19 19 18 17 17 17 17 16 15 14 14 14 14 14 14 14 14 16 16 15 15 15 16 18 18 18 18 19 22 25 25 24 21 18 15 12 9 7 5 3 3 4 5 7 8 8 9 10 10 10 10 8 8 7 7 7 7 7 7 7 8 8 7 7 6 6 6 6
27 26 25 24 22 22 22 21 21 20 20 18 17 18 18 18 18 20 19 19 19 18 18 18 16 14 15 15 14 14 14 14 14 15 16 16 15 15 15 16 18 19 19 19 20 22 24 25 24 21 19 15 13 10 8 6 4 2 3 4 5 6 7 8 8 8 9 9 7 7 7 6 6 6 6 6 6 6 7 7 7 6 5 5 5
26 27 26 24 22 23 23 21 19 18 17 17 18 19 20 20 19 20 19 19 19 19 19 17 16 15 16 16 15 13 12 13 15 15 16 16 15 15 16 16 17 18 19 19 20 21 23 24 24 22 19 16 13 11 9 8 5 2 2 3 4 5 6 7 7 7 8 9 7 6 6 5 5 5 5 5 5 5 5 5 5 6 5 5 5
24 26 26 25 23 24 23 21 18 16 15 16 18 20 21 20 20 20 20 20 20 20 19 18 17 17 18 16 15 13 11 13 14 14 14 15 15 15 15 15 16 17 18 19 20 21 21 23 24 22 20 18 14 12 10 8 5 2 1 3 4 5 6 6 6 6 7 7 6 6 5 4 4 4 4 4 4 5 4 4 4 4 4 4 4
21 24 25 25 25 24 21 20 17 16 17 18 19 20 21 21 21 20 20 21 20 20 20 19 19 19 19 17 15 14 13 13 12 11 11 13 13 15 15 14 14 15 17 19 20 20 20 21 23 22 21 20 16 13 10 7 6 4 1 2 5 6 7 7 7 6 5 5 5 5 4 4 4 4 4 4 4 4 4 4 3 3 3 3 3
18 20 22 23 24 22 20 19 18 19 19 20 21 21 21 21 21 20 20 21 20 20 20 20 21 20 19 17 15 14 12 12 12 11 12 12 13 16 15 14 14 14 16 18 19 20 20 21 22 22 21 21 18 14 10 8 8 6 4 2 4 6 7 7 7 5 4 4 4 4 3 4 4 4 3 3 3 3 3 2 2 2 1 2 2
15 16 19 21 22 22 20 20 20 20 20 21 21 22 22 22 22 21 22 22 21 20 20 21 21 20 19 17 15 13 11 11 11 12 13 13 14 16 15 14 15 15 16 18 19 19 20 21 22 21 21 20 18 15 11 9 9 8 5 3 4 6 7 7 6 4 3 3 3 3 3 3 3 3 3 2 2 1 2 1 1 1 1 1 0
12 13 15 19 21 22 22 21 21 21 21 21 22 22 23 23 23 24 23 21 21 20 21 23 22 20 19 17 16 13 11 10 11 11 12 13 14 15 14 14 15 16 17 18 20 19 19 20 20 20 19 18 17 15 12 10 9 7 5 3 4 5 6 6 4 3 2 2 2 2 2 2 2 2 1 2 1 1 1 2 2 1 0 1 1
12 12 13 17 20 22 23 23 23 22 22 21 22 24 24 25 25 24 22 20 20 21 22 23 21 20 19 17 16 13 11 11 11 11 12 13 13 13 13 14 15 16 17 19 20 20 19 19 18 18 17 16 15 14 13 10 8 6 4 3 5 6 6 4 3 1 1 0 1 1 1 1 1 1 1 1 1 1 2 2 1 1 1 1 1
10 10 12 16 20 22 23 23 23 22 22 22 23 24 24 25 25 24 21 19 20 20 19 18 18 18 17 17 15 13 13 13 13 13 14 14 14 13 12 12 13 16 18 19 21 21 20 19 19 18 16 15 14 14 13 10 7 6 4 4 6 6 5 3 2 1 1 1 0 0 0 1 1 2 1 1 1 1 2 2 2 1 1 0 1
7 8 11 15 18 21 22 22 23 23 22 22 23 24 25 25 25 23 21 20 19 18 16 15 17 15 15 16 15 14 15 15 14 14 15 15 15 14 12 11 13 16 18 19 22 23 22 20 19 18 17 16 14 13 12 9 8 7 5 5 5 5 5 4 2 2 2 2 1 1 1 2 2 2 2 2 2 2 3 4 4 3 3 2 1
6 9 11 13 16 19 22 23 24 23 22 23 24 25 25 26 25 23 21 20 18 17 16 17 17 14 15 15 14 15 16 16 16 16 17 17 17 16 13 12 14 17 18 20 22 23 22 21 19 18 16 16 15 13 11 9 9 7 6 7 6 5 6 4 3 3 2 2 2 2 2 2 2 2 2 4 4 4 5 6 6 6 6 5 3
6 8 10 12 15 17 21 23 24 23 22 23 24 25 26 26 24 21 20 19 18 18 17 18 16 15 16 16 16 17 17 17 17 18 19 18 18 17 14 13 15 18 19 20 21 22 21 20 19 18 16 15 14 13 11 10 8 7 7 8 7 6 6 5 4 3 3 3 3 3 3 3 3 3 4 5 5 6 7 7 8 8 9 8 7
7 8 9 11 13 15 19 23 24 24 23 23 23 24 26 25 23 21 21 20 19 17 17 17 15 15 17 18 18 19 19 18 19 20 19 18 18 17 14 15 16 17 19 19 19 19 20 20 19 18 16 14 13 12 11 9 8 8 7 7 7 6 6 5 4 4 4 3 3 3 3 3 3 4 4 5 5 5 6 7 8 9 10 10 11
9 9 9 10 12 14 17 21 25 25 23 22 23 24 24 24 22 20 21 21 19 17 16 16 16 16 18 20 20 20 20 19 20 20 18 18 18 16 15 17 17 15 16 17 16 16 16 17 18 16 14 13 13 12 11 10 9 8 8 8 7 6 6 6 6 5 5 3 3 3 3 3 3 3 4 4 4 4 4 5 6 7 8 9 11
10 9 8 9 11 14 17 21 24 24 23 23 23 23 22 22 21 20 20 19 18 19 18 17 17 17 19 21 21 21 21 21 22 21 19 18 18 17 16 17 16 14 14 14 13 13 13 15 15 14 14 13 14 13 11 11 10 9 9 8 8 7 7 7 7 7 5 4 3 3 4 4 4 3 4 4 4 3 3 3 3 3 4 5 6
11 9 8 10 12 14 17 21 23 23 23 23 23 22 21 22 21 20 21 20 19 20 20 18 17 18 20 21 21 22 22 22 23 21 20 19 18 17 16 16 16 14 13 14 13 13 14 15 15 14 14 14 14 13 12 11 11 10 9 8 8 8 8 8 8 8 7 6 4 3 4 5 5 5 4 3 3 3 3 3 3 3 3 2 2
11 10 11 12 13 14 16 19 20 21 23 24 23 22 22 22 22 22 23 21 20 22 22 20 19 20 21 20 21 22 22 24 25 22 19 19 18 17 16 16 16 14 13 16 16 15 15 16 15 15 14 15 15 13 12 11 10 10 9 9 9 9 8 7 8 8 8 7 5 4 5 5 6 5 4 3 3 4 4 3 3 3 3 2 1
12 12 14 15 15 14 15 16 16 18 22 23 22 23 23 22 22 23 23 23 23 24 23 21 21 21 22 21 21 22 22 24 24 22 19 19 18 17 17 17 16 14 13 15 17 17 16 15 15 15 15 16 15 13 12 11 11 11 10 10 10 9 9 8 8 9 8 7 6 6 5 6 7 5 5 5 3 3 3 2 2 3 3 3 2
13 14 16 16 15 14 14 14 14 18 20 21 21 22 22 21 21 21 23 24 24 24 23 21 21 22 22 22 21 22 22 23 23 21 20 19 19 18 18 18 16 15 14 14 16 17 16 16 16 15 15 14 13 12 12 12 12 13 12 11 9 9 9 8 9 9 9 7 6 6 5 6 8 6 5 6 5 4 3 3 2 3 3 3 3
13 14 15 15 14 14 15 14 14 17 19 21 21 21 21 21 21 20 20 21 21 22 21 21 21 21 22 22 22 22 22 22 22 20 20 20 19 18 18 17 16 15 15 15 16 17 16 16 15 14 13 13 12 11 12 12 13 13 12 11 9 9 9 9 10 9 8 7 6 7 6 6 7 6 6 7 6 5 4 4 3 3 4 4 4
14 14 15 14 13 13 14 14 14 16 19 21 22 21 21 22 22 20 19 20 20 20 21 22 23 22 22 22 21 20 19 21 20 19 21 21 18 16 16 16 16 15 15 16 16 16 15 14 14 13 13 13 13 13 14 13 13 11 10 10 11 11 9 8 11 10 9 8 8 7 6 6 6 6 7 8 8 7 5 5 4 4 5 4 4
14 14 14 14 14 14 14 14 14 16 19 21 22 22 22 23 23 21 20 20 21 21 22 23 23 23 22 21 20 18 17 19 19 19 21 20 16 16 17 17 16 15 15 15 15 14 14 14 13 13 13 13 13 14 15 15 13 11 9 8 9 9 10 11 11 10 9 8 8 7 7 7 6 6 7 8 9 7 6 5 5 5 5 5 5
14 13 14 14 15 15 15 14 15 17 19 21 22 22 22 23 23 22 22 22 22 22 22 23 22 22 22 20 18 17 17 17 17 19 20 19 17 19 19 17 16 15 15 15 14 14 14 14 14 13 12 12 12 14 16 16 15 12 10 9 6 5 7 12 13 10 9 9 8 7 7 7 7 7 7 8 8 7 6 6 6 5 5 5 5
14 14 14 14 15 16 16 17 16 17 19 21 22 23 23 23 23 23 23 22 22 22 22 22 23 23 21 19 17 17 17 17 16 18 19 18 18 18 18 17 16 15 15 15 14 14 14 14 13 13 13 12 12 13 14 16 16 14 13 12 10 7 5 7 11 10 10 11 9 7 7 8 8 8 8 8 8 8 7 6 6 5 5 6 5
14 14 15 14 14 15 16 18 18 17 17 18 21 22 22 23 24 24 22 22 23 23 23 23 23 22 20 18 18 16 15 16 17 18 18 18 18 17 17 16 16 15 15 15 14 15 15 14 14 14 14 14 13 12 12 14 15 14 14 14 12 11 8 6 8 9 9 11 12 10 9 9 9 9 9 8 8 8 7 6 6 6 6 6 6
15 16 15 14 15 15 16 18 18 17 16 15 17 18 18 22 26 24 22 22 23 23 23 23 22 20 18 17 17 16 15 15 17 19 18 17 17 17 17 16 16 15 15 14 15 15 15 14 14 15 14 14 13 12 11 12 13 13 14 14 13 13 11 8 8 11 10 10 13 13 12 11 11 11 10 9 9 8 8 7 6 6 6 7 6
17 17 16 15 15 15 16 17 18 18 17 15 12 12 17 22 25 24 23 23 24 23 22 22 21 18 16 15 15 14 15 16 16 16 16 16 17 17 17 16 16 15 15 15 16 16 15 15 14 14 14 13 13 13 11 10 11 12 13 14 14 14 12 10 10 13 12 11 12 14 15 14 13 13 11 10 9 8 8 7 7 7 6 6 6
18 19 19 18 16 16 16 18 18 18 18 15 10 10 16 20 22 23 23 23 23 22 21 21 19 18 16 14 12 12 15 17 15 16 16 17 17 17 17 16 15 15 15 15 15 16 15 15 15 14 14 14 13 11 11 10 9 11 13 14 14 13 12 11 11 12 13 12 11 13 16 16 14 13 11 10 9 8 8 8 7 6 6 6 7
Wind_Direction
180 177 173 169 167 166 166 166 164 160 157 157 158 157 157 158 159 157 155 153 150 149 147 145 143 141 141 140 137 134 129 124 117 109 102 95 92 94 97 97 100 105 110 112 111 109 108 106 105 106 105 103 100 98 98 98 97 95 95 94 92 91 91 91 89 89 89 87 87 91 95 97 95 94 93 93 91 90 91 90 89 85 80 80 80
177 176 174 171 168 167 167 168 166 161 157 158 158 158 158 160 159 158 155 153 152 151 149 146 144 143 143 141 139 135 130 124 117 110 102 96 97 100 101 102 105 108 111 113 111 108 106 104 104 106 106 104 100 99 98 97 96 93 92 91 90 90 90 88 88 89 87 87 91 99 107 107 102 99 96 95 94 93 93 92 90 87 84 82 81
176 176 175 171 169 168 169 169 167 163 159 159 158 159 160 162 161 158 156 155 155 153 151 148 147 146 146 144 141 137 132 126 119 112 103 98 101 103 104 105 109 111 113 113 111 108 106 105 108 110 107 107 104 101 99 98 96 93 92 92 91 90 90 89 89 89 88 88 88 95 106 112 112 108 104 101 98 97 95 93 92 89 87 86 83
175 175 173 172 171 169 170 170 169 164 161 160 159 160 161 163 161 160 158 157 157 155 153 150 150 150 149 147 143 139 135 129 122 115 106 104 105 105 107 108 112 113 114 115 112 110 109 109 112 114 111 110 107 104 102 101 99 97 95 91 88 86 84 81 79 80 86 91 88 93 103 109 111 107 105 108 104 101 97 93 94 93 91 90 87
176 175 175 173 172 171 172 171 170 166 163 162 161 161 161 164 163 162 161 160 159 157 155 153 154 153 152 149 146 143 138 132 125 118 111 110 109 108 110 113 116 115 115 116 115 115 115 115 115 116 115 112 110 109 107 105 104 101 99 96 91 86 81 74 68 67 73 87 96 99 107 109 106 102 102 107 105 103 100 95 94 95 96 97 93
177 176 176 173 173 172 172 173 171 168 165 163 162 162 163 165 166 165 164 163 161 159 157 156 156 155 154 152 149 146 141 135 129 124 117 113 112 111 113 117 119 117 116 117 118 119 120 120 119 119 118 116 114 112 109 107 106 104 102 102 97 88 78 67 58 54 56 68 91 103 107 107 105 103 105 109 109 112 111 104 98 94 95 100 99
178 176 176 174 173 173 174 175 173 171 167 165 164 164 164 167 168 168 167 164 162 161 160 159 158 157 156 155 153 149 144 139 134 128 122 116 114 116 118 120 122 121 119 119 121 122 123 123 122 121 120 118 115 114 112 110 109 106 101 96 91 83 71 60 51 45 44 53 79 102 106 105 105 101 106 114 113 115 114 109 104 98 94 101 102
178 177 177 175 174 174 175 177 175 174 170 168 166 166 167 169 170 169 169 166 164 164 163 162 160 160 159 158 156 151 147 142 138 133 127 121 116 119 123 123 125 126 123 123 124 124 124 124 124 123 120 117 115 115 114 114 111 103 97 92 85 76 65 57 50 44 42 49 72 94 101 105 107 101 100 108 109 106 101 103 105 105 101 105 107
179 178 178 176 174 175 177 179 177 175 173 171 168 168 170 171 172 171 170 167 166 167 167 165 162 162 161 161 159 154 150 146 142 137 131 124 119 120 124 125 128 130 129 128 129 128 128 127 125 122 118 115 115 116 116 114 108 101 95 89 82 73 64 57 51 47 46 53 69 86 96 101 102 99 97 98 102 99 94 98 103 107 106 106 109
180 180 179 177 176 177 178 180 179 178 176 174 172 171 172 172 172 171 170 170 170 171 169 167 165 165 164 164 162 158 154 150 146 141 135 129 125 123 125 127 129 132 133 133 133 132 132 131 127 123 118 115 116 117 117 112 104 97 91 83 75 68 62 55 50 49 50 55 69 85 93 95 95 94 95 95 96 95 94 99 103 105 99 96 104
182 181 180 179 179 180 179 180 180 180 179 177 176 175 173 171 170 170 170 172 173 174 172 170 168 167 167 167 165 162 159 155 150 145 140 135 132 129 130 130 130 133 136 137 137 137 137 135 130 125 120 117 116 113 111 104 96 90 84 78 71 65 60 55 52 52 53 55 65 84 90 91 91 90 90 90 92 94 96 98 99 100 94 91 100
184 182 180 180 180 182 181 182 182 182 181 180 179 177 174 169 168 168 169 172 174 175 175 173 172 171 171 171 169 166 164 161 156 150 146 142 139 137 135 133 132 135 138 141 142 142 142 139 133 127 124 122 119 117 112 102 94 87 81 77 71 65 61 59 58 57 58 59 64 80 88 89 88 87 87 88 90 91 92 93 94 96 95 92 98
186 182 180 180 181 182 183 183 183 183 183 183 182 179 174 170 168 169 171 171 172 173 174 175 175 175 174 175 173 170 169 167 163 156 153 149 146 143 140 136 136 139 142 144 146 146 145 142 136 130 129 128 126 126 119 104 95 86 80 76 72 69 66 66 66 63 63 60 60 71 81 84 85 86 86 87 88 88 88 89 91 93 94 92 95
187 183 181 182 182 183 184 184 184 184 185 185 184 180 175 172 172 171 172 172 173 173 171 172 174 176 178 178 177 176 174 172 170 164 161 157 152 148 145 142 140 143 146 147 149 150 148 144 138 135 135 134 136 137 126 108 96 87 81 76 72 72 70 69 71 70 67 62 58 62 68 74 80 83 85 86 86 86 86 86 88 90 90 92 95
188 183 182 183 184 184 185 186 186 186 187 187 185 182 178 176 176 175 173 173 176 176 173 172 172 175 178 179 179 178 177 176 175 172 169 165 159 154 150 149 146 146 150 150 151 153 151 147 142 140 141 142 145 147 133 110 95 87 82 77 72 71 68 67 71 74 71 65 61 58 59 65 70 76 81 85 86 86 85 85 86 86 87 91 95
187 184 184 184 185 185 185 186 187 188 188 188 187 184 182 182 180 180 179 177 178 179 178 176 175 176 178 178 178 177 175 176 178 178 176 173 168 162 155 156 154 150 152 153 154 156 155 151 147 147 147 148 152 154 138 111 95 86 79 75 69 66 62 59 63 69 70 67 63 57 56 62 66 68 72 78 84 86 85 85 85 88 91 91 91
185 185 185 185 186 186 185 186 188 189 190 189 188 187 186 186 186 187 186 184 183 183 182 181 181 182 182 180 177 175 173 174 179 182 180 178 176 170 162 162 162 157 154 154 156 158 158 156 152 152 151 154 161 163 146 118 99 91 83 73 66 62 57 52 56 61 63 65 62 58 55 57 64 66 67 69 76 83 87 90 90 91 92 90 89
185 186 186 188 188 187 186 186 187 187 189 189 189 189 189 190 191 194 193 190 187 187 185 184 186 188 188 185 181 178 175 175 179 184 183 182 180 176 171 168 168 165 158 155 157 159 161 160 157 156 156 160 171 171 155 130 108 99 86 72 63 58 53 50 53 57 57 58 57 56 56 54 55 60 66 67 69 76 83 87 88 89 89 90 92
185 187 187 189 189 189 187 186 187 187 188 189 189 189 190 193 195 198 197 195 193 191 188 186 191 192 194 191 186 182 179 178 180 186 186 185 183 180 177 175 174 170 164 158 157 160 162 162 160 158 160 166 177 176 160 138 113 97 81 67 59 53 54 52 50 52 52 52 51 52 56 55 51 52 58 58 59 63 70 74 76 78 79 83 87
186 188 188 189 189 189 187 186 187 186 188 190 190 189 192 196 198 201 200 199 197 194 190 189 192 191 195 198 192 187 184 180 180 186 188 186 185 182 181 180 178 175 168 161 158 161 164 164 162 160 163 170 179 178 166 142 107 91 80 68 57 51 54 52 46 45 45 46 49 51 51 52 50 50 52 51 51 51 56 67 72 73 74 76 81
188 190 189 189 188 188 187 186 188 188 190 191 191 192 194 198 201 202 202 203 200 198 196 193 193 192 194 199 199 195 190 186 182 186 189 187 183 181 183 182 181 178 170 164 160 162 166 166 163 162 165 172 179 183 174 148 108 86 80 68 53 45 47 44 42 43 43 43 44 47 47 48 49 48 49 47 48 48 47 53 61 70 74 76 80
192 193 192 192 190 189 188 187 189 190 192 192 191 195 197 200 202 202 203 203 201 201 200 197 195 196 197 200 205 201 195 194 189 189 192 187 180 179 184 184 182 179 172 165 160 162 167 167 165 164 167 173 178 184 182 161 128 93 71 54 45 39 38 35 35 38 39 40 40 41 44 50 53 52 50 48 46 47 50 49 54 61 65 70 76
195 194 194 196 194 193 193 191 191 190 191 190 190 194 198 203 203 203 204 202 201 203 202 201 199 200 202 204 205 200 195 196 193 194 196 190 180 178 185 186 183 179 173 165 160 163 168 169 167 166 170 174 177 183 185 175 151 108 64 44 41 34 29 23 21 24 25 28 34 35 37 43 50 54 56 53 46 44 50 52 56 59 60 65 72
197 198 197 198 196 196 196 195 196 193 190 189 191 195 199 205 205 203 205 203 202 204 204 203 201 203 204 203 199 193 191 192 193 196 197 194 181 178 185 186 186 181 174 167 162 163 168 171 170 169 172 175 178 184 186 182 169 113 61 44 36 24 17 9 8 11 10 14 23 31 35 37 43 51 54 51 47 44 47 49 53 56 59 62 69
200 201 202 198 194 199 198 195 200 196 189 192 197 200 203 207 206 205 206 205 204 203 203 202 202 201 199 199 196 194 193 190 193 197 201 200 187 181 186 186 188 184 175 169 163 163 168 173 174 173 176 175 174 182 188 186 180 124 62 38 19 2 354 352 358 3 4 11 18 25 34 39 42 49 51 51 51 49 48 49 51 53 57 60 66
204 204 204 200 197 204 204 200 202 195 192 199 203 207 209 210 209 207 206 207 206 203 201 201 201 198 196 197 198 200 200 194 193 194 202 209 196 185 187 186 188 187 179 170 167 166 167 173 176 177 180 176 169 178 187 188 193 173 87 9 354 340 336 339 347 355 3 13 19 23 31 39 46 48 46 49 53 53 51 50 50 55 59 61 66
208 208 208 207 205 210 211 205 202 196 197 202 206 211 213 213 211 207 208 208 205 203 202 202 200 195 194 197 201 204 204 199 192 188 202 209 195 183 184 183 184 188 184 175 170 170 169 171 174 178 182 177 170 179 187 189 204 204 200 320 332 330 333 336 341 351 356 1 13 24 30 38 46 50 48 49 52 52 51 46 44 56 68 69 74
212 213 214 214 213 214 210 203 201 199 201 202 206 212 214 213 210 207 209 210 206 206 205 202 199 195 195 198 202 206 206 203 195 195 208 203 183 179 182 183 183 185 186 180 174 173 172 170 171 176 182 180 179 189 192 192 203 208 212 267 312 322 331 334 338 346 349 358 14 22 30 38 41 41 36 45 59 54 51 47 44 52 63 73 90
217 217 219 217 216 215 209 205 203 203 205 205 208 212 214 213 209 207 209 210 209 209 206 201 199 196 198 199 200 204 203 198 191 194 202 193 178 178 184 187 186 184 184 183 179 177 175 172 172 178 184 186 191 197 198 199 202 205 209 246 299 313 326 331 334 338 349 14 26 23 32 36 38 33 15 24 49 50 44 39 30 28 33 48 121
219 221 222 219 217 215 212 210 207 209 209 208 212 214 215 214 211 210 209 212 212 213 209 201 199 200 200 199 198 199 200 196 190 192 192 186 181 179 183 188 188 186 184 183 182 180 177 175 176 183 188 192 197 201 205 208 205 207 212 248 287 300 319 327 327 334 357 27 46 41 43 43 49 51 15 11 25 47 50 27 7 357 295 247 233
216 220 219 219 219 217 216 215 213 214 212 211 215 215 217 216 214 211 209 214 218 219 214 203 201 204 201 200 200 196 196 197 196 199 195 188 184 179 182 188 189 187 184 183 182 181 178 177 181 187 191 195 201 206 211 212 209 212 219 257 277 286 302 311 312 320 0 61 78 49 43 67 86 90 60 19 27 51 48 36 14 343 306 271 263
207 213 216 219 220 221 220 220 219 216 213 214 216 218 220 218 216 212 209 214 220 223 219 207 207 212 209 205 203 199 199 200 201 203 201 195 188 182 181 183 187 186 183 181 181 181 180 181 186 191 194 199 205 208 211 212 212 215 220 258 273 279 278 264 262 251 204 221 126 96 118 100 96 100 101 74 57 50 43 56 66 35 19 8 305
202 207 215 220 224 225 225 225 223 217 214 216 219 222 223 221 218 214 213 215 220 225 221 214 215 224 228 219 208 204 204 204 203 205 205 201 193 186 180 175 178 181 180 179 179 180 182 185 190 194 197 202 206 205 208 212 215 217 220 249 266 259 250 242 235 210 212 225 170 148 131 108 101 106 107 97 92 86 75 71 70 66 74 74 38
211 211 213 218 225 227 227 229 226 218 214 219 224 224 223 221 218 216 218 216 217 221 218 218 218 220 233 233 221 214 212 210 209 209 208 204 196 190 181 172 171 172 174 175 177 180 183 188 192 194 199 202 203 202 206 213 216 220 227 242 252 241 235 236 220 197 204 198 160 147 131 116 115 112 105 105 109 107 95 83 76 75 77 75 75
232 228 218 216 221 225 228 228 226 221 219 226 230 226 225 222 218 219 222 217 216 219 218 220 220 217 225 231 230 224 219 215 215 214 208 205 198 192 186 179 174 172 173 174 175 179 184 189 193 195 199 198 198 202 206 212 217 222 229 236 240 234 227 225 214 195 193 185 155 144 134 129 131 122 117 118 118 111 101 91 85 82 80 78 79
248 239 225 220 219 221 226 226 227 227 226 232 232 227 226 225 223 222 220 218 219 222 222 221 221 221 223 228 230 226 222 218 218 216 207 202 197 193 191 184 178 176 178 179 179 183 186 190 193 197 200 196 194 201 207 211 217 218 217 223 223 220 215 210 211 205 198 187 161 155 148 145 141 132 132 132 128 118 110 104 97 91 87 83 80
251 239 230 226 220 218 222 224 228 230 230 232 230 227 228 229 229 221 216 219 220 221 223 223 222 219 219 224 228 228 226 221 218 214 204 199 197 194 190 182 180 183 181 181 181 182 185 186 189 197 202 200 198 204 211 211 211 210 205 206 203 201 205 208 210 209 204 194 176 173 173 166 151 149 154 155 151 137 126 118 107 98 92 85 80
246 240 233 230 226 222 222 223 228 231 229 231 231 230 230 229 226 218 216 218 218 218 222 225 225 220 219 222 226 227 227 224 218 211 203 200 197 193 189 184 186 191 188 183 179 179 186 189 192 198 200 201 206 211 213 205 199 201 201 195 192 193 198 203 210 210 204 198 198 189 186 183 172 170 173 180 186 170 158 148 132 126 115 95 84
242 235 224 225 227 225 225 226 230 230 227 229 231 229 228 224 219 217 218 217 217 220 223 226 226 224 223 223 224 225 224 224 217 207 203 201 197 192 190 190 188 190 194 192 189 189 194 197 200 204 200 199 210 215 210 200 194 198 198 186 181 188 193 201 213 214 207 202 209 205 198 197 188 181 183 193 200 196 191 177 164 166 161 148 115
234 224 217 220 223 223 226 228 229 226 222 225 225 223 223 219 217 221 221 218 219 222 224 226 227 229 229 227 226 225 223 223 215 204 203 202 198 193 191 192 188 188 196 197 196 197 198 198 200 204 205 202 203 205 204 204 200 194 189 178 174 182 192 202 213 217 215 210 208 208 209 208 197 187 193 202 201 205 208 191 180 185 176 173 185
221 216 218 218 220 221 223 226 223 215 216 220 219 217 216 213 215 220 221 220 219 221 225 227 232 234 234 231 229 228 227 225 216 206 205 203 198 194 192 193 190 190 198 198 195 195 197 201 202 202 207 209 204 200 202 205 201 189 177 171 174 187 196 202 214 224 225 218 209 210 220 219 206 196 202 208 200 198 208 199 193 215 206 181 184
217 218 224 221 217 215 216 220 214 206 208 214 216 214 210 209 215 220 223 225 225 227 230 232 238 240 239 236 234 234 230 223 217 209 205 202 196 193 192 194 195 194 198 198 193 194 199 204 207 205 204 211 213 210 206 201 199 195 185 176 174 191 202 207 216 221 220 216 210 213 228 228 215 211 212 209 205 194 195 205 203 221 220 205 202
223 230 235 231 222 215 214 215 211 206 204 206 211 211 207 210 219 226 231 235 238 241 242 242 243 243 241 239 239 239 231 222 217 210 204 198 193 192 194 197 200 200 201 201 197 197 201 204 209 212 210 209 212 219 216 205 201 198 192 180 174 188 201 213 219 213 211 215 215 219 228 229 222 224 220 211 209 204 200 208 208 206 215 220 221
223 233 238 237 234 230 224 218 214 211 206 205 209 210 210 213 220 229 238 243 247 249 250 250 248 246 243 240 239 238 231 225 219 210 205 199 194 197 198 200 201 203 207 205 201 200 203 206 210 217 223 219 216 220 215 205 204 201 193 182 181 191 195 210 221 211 206 213 217 223 223 219 222 226 225 216 209 206 202 205 208 206 212 219 219
221 228 230 228 230 237 238 233 228 222 215 213 213 212 213 215 219 227 235 241 244 246 249 252 252 252 249 243 240 238 235 229 219 211 206 199 200 203 201 202 203 204 205 203 204 208 208 214 220 224 228 226 224 223 209 198 203 205 204 194 188 199 200 205 218 215 213 220 220 221 217 212 216 221 223 213 203 200 197 204 215 217 219 221 218
225 232 230 221 218 224 230 233 235 234 231 228 223 219 218 220 224 228 232 237 241 245 251 257 259 258 254 245 239 239 238 233 221 212 205 200 206 207 200 202 205 204 205 202 205 214 218 221 225 227 228 224 222 222 208 196 198 200 205 213 216 230 219 212 216 206 205 220 217 212 216 210 205 207 206 201 201 202 198 204 215 217 222 221 218
231 240 240 229 218 215 218 222 224 228 238 243 238 231 227 229 231 232 235 239 244 250 254 260 263 262 256 246 242 243 240 233 222 212 206 204 210 206 196 199 204 205 207 206 206 214 220 223 224 225 226 223 217 218 211 200 201 201 203 214 228 246 251 232 222 203 198 210 209 211 212 201 196 200 200 201 203 203 201 205 211 215 221 219 223
239 251 253 248 236 223 220 223 223 221 229 243 248 245 241 240 241 240 242 245 250 255 258 262 264 261 257 251 250 248 240 231 218 211 209 207 208 202 194 197 201 203 207 208 211 215 217 218 219 220 222 222 217 215 215 211 210 209 206 212 223 233 249 265 240 224 219 205 198 208 206 193 197 200 197 199 199 200 203 207 210 217 224 227 238
241 251 258 260 252 239 230 228 229 230 228 234 246 254 255 254 254 251 249 252 255 258 262 266 265 260 255 251 249 246 235 224 212 208 208 206 204 199 196 198 199 202 207 209 212 213 213 214 213 215 216 216 213 210 216 222 221 216 212 214 219 226 243 258 231 226 235 210 199 208 200 189 198 201 197 195 195 200 203 205 212 219 228 236 242
242 247 258 264 262 255 243 231 230 235 235 232 238 255 258 260 264 261 256 258 260 261 262 265 265 259 253 247 245 238 222 214 206 201 202 201 200 198 197 198 200 202 205 206 208 206 207 210 211 210 210 209 206 204 209 217 222 224 223 220 220 225 236 241 221 217 225 220 215 215 201 194 199 199 199 194 193 201 201 206 217 216 227 239 240
250 254 262 269 270 266 251 238 234 233 233 227 221 245 254 259 268 269 264 262 263 263 262 263 261 255 249 241 235 227 212 206 200 193 196 198 197 198 197 198 201 202 201 203 204 204 206 210 209 203 204 208 206 204 208 207 214 227 229 225 226 232 241 248 243 231 223 219 225 220 203 198 201 198 199 195 192 200 199 207 218 213 222 236 236